This is the latest recevied weather packets stored in our database for station/object JA6YCL-13. If no packets are shown the sender has not sent any weather packets the latest 10 day(s).
| Time | Temp. | Humidity | Pressure | Rain* | Wind** | Luminosity | Snow |
|---|---|---|---|---|---|---|---|
| 1778208683 | 22.78° C | 54% | 1010.7 hPa | 0 mm | - | - | - |
| 1778207808 | 23.33° C | 52% | 1010.6 hPa | 0 mm | - | - | - |
| 1778207003 | 23.33° C | 53% | 1010.7 hPa | 0 mm | - | - | - |
| 1778206178 | 22.78° C | 53% | 1010.5 hPa | 0 mm | - | - | - |
| 1778205301 | 22.78° C | 56% | 1010.4 hPa | 0 mm | - | - | - |
| 1778204455 | 22.78° C | 57% | 1010.5 hPa | 0 mm | - | - | - |
| 1778203688 | 21.67° C | 60% | 1010.6 hPa | 0 mm | - | - | - |
| 1778202818 | 21.67° C | 61% | 1010.7 hPa | 0 mm | - | - | - |
| 1778201932 | 21.67° C | 61% | 1010.6 hPa | 0 mm | - | - | - |
| 1778201143 | 21.67° C | 62% | 1010.7 hPa | 0 mm | - | - | - |
| 1778200413 | 21.67° C | 63% | 1010.7 hPa | 0 mm | - | - | - |
| 1778199643 | 21.11° C | 64% | 1010.8 hPa | 0 mm | - | - | - |
| 1778198803 | 21.11° C | 65% | 1010.4 hPa | 0 mm | - | - | - |
| 1778197947 | 20° C | 68% | 1010.5 hPa | 0 mm | - | - | - |
| 1778197190 | 20° C | 69% | 1010.5 hPa | 0 mm | - | - | - |
| 1778196421 | 20° C | 68% | 1010.5 hPa | 0 mm | - | - | - |
| 1778195673 | 20° C | 68% | 1011 hPa | 0 mm | - | - | - |
| 1778194923 | 20° C | 68% | 1011 hPa | 0 mm | - | - | - |
| 1778194104 | 18.89° C | 71% | 1011 hPa | 0 mm | - | - | - |
| 1778193293 | 18.33° C | 79% | 1011 hPa | 0 mm | - | - | - |
| 1778192542 | 17.78° C | 80% | 1011.2 hPa | 0 mm | - | - | - |
| 1778191787 | 17.22° C | 82% | 1011 hPa | 0 mm | - | - | - |
| 1778191028 | 17.22° C | 82% | 1010.9 hPa | 0 mm | - | - | - |
| 1778190293 | 17.22° C | 83% | 1010.8 hPa | 0 mm | - | - | - |
| 1778189565 | 17.22° C | 83% | 1010.8 hPa | 0 mm | - | - | - |
* Rain latest hour (hover to see other rain measurements)
** Current wind speed in m/s (hover to see current wind gust speed)